Year,Month,Day,Hour,Minute,Value (Times are PST for temperature in C)
2016,08,20,00,00,20.20
2016,08,20,00,01,20.20
2016,08,20,00,02,20.20
2016,08,20,00,03,20.20
2016,08,20,00,04,20.20
2016,08,20,00,05,20.20
2016,08,20,00,06,20.20
2016,08,20,00,07,20.20
2016,08,20,00,08,20.20
2016,08,20,00,09,20.20
2016,08,20,00,10,20.20
2016,08,20,00,11,20.20
2016,08,20,00,12,20.20
2016,08,20,00,13,20.30
2016,08,20,00,14,20.30
2016,08,20,00,15,20.30
2016,08,20,00,16,20.40
2016,08,20,00,17,20.40
2016,08,20,00,18,20.40
2016,08,20,00,19,20.40
2016,08,20,00,20,20.40
2016,08,20,00,21,20.50
2016,08,20,00,22,20.50
2016,08,20,00,23,20.50
2016,08,20,00,24,20.50
2016,08,20,00,25,20.40
2016,08,20,00,26,20.40
2016,08,20,00,27,20.40
2016,08,20,00,28,20.40
2016,08,20,00,29,20.40
2016,08,20,00,30,20.40
2016,08,20,00,31,20.30
2016,08,20,00,32,20.30
2016,08,20,00,33,20.30
2016,08,20,00,34,20.30
2016,08,20,00,35,20.20
2016,08,20,00,36,20.20
2016,08,20,00,37,20.20
2016,08,20,00,38,20.20
2016,08,20,00,39,20.10
2016,08,20,00,40,20.10
2016,08,20,00,41,20.10
2016,08,20,00,42,20.10
2016,08,20,00,43,20.00
2016,08,20,00,44,20.00
2016,08,20,00,45,20.00
2016,08,20,00,46,20.00
2016,08,20,00,47,20.10
2016,08,20,00,48,20.10
2016,08,20,00,49,20.10
2016,08,20,00,50,20.10
2016,08,20,00,51,20.10
2016,08,20,00,52,20.10
2016,08,20,00,53,20.00
2016,08,20,00,54,20.00
2016,08,20,00,55,19.90
2016,08,20,00,56,19.90
2016,08,20,00,57,19.90
2016,08,20,00,58,19.90
2016,08,20,00,59,19.80
2016,08,20,01,00,19.80
2016,08,20,01,01,19.80
2016,08,20,01,02,19.80
2016,08,20,01,03,19.70
2016,08,20,01,04,19.70
2016,08,20,01,05,19.70
2016,08,20,01,06,19.70
2016,08,20,01,07,19.70
2016,08,20,01,08,19.70
2016,08,20,01,09,19.60
2016,08,20,01,10,19.60
2016,08,20,01,11,19.60
2016,08,20,01,12,19.60
2016,08,20,01,13,19.60
2016,08,20,01,14,19.60
2016,08,20,01,15,19.50
2016,08,20,01,16,19.50
2016,08,20,01,17,19.50
2016,08,20,01,18,19.50
2016,08,20,01,19,19.50
2016,08,20,01,20,19.50
2016,08,20,01,21,19.50
2016,08,20,01,22,19.50
2016,08,20,01,23,19.50
2016,08,20,01,24,19.50
2016,08,20,01,25,19.50
2016,08,20,01,26,19.50
2016,08,20,01,27,19.50
2016,08,20,01,28,19.50
2016,08,20,01,29,19.40
2016,08,20,01,30,19.40
2016,08,20,01,31,19.40
2016,08,20,01,32,19.40
2016,08,20,01,33,19.40
2016,08,20,01,34,19.30
2016,08,20,01,35,19.30
2016,08,20,01,36,19.30
2016,08,20,01,37,19.30
2016,08,20,01,38,19.20
2016,08,20,01,39,19.20
2016,08,20,01,40,19.20
2016,08,20,01,41,19.20
2016,08,20,01,42,19.20
2016,08,20,01,43,19.20
2016,08,20,01,44,19.20
2016,08,20,01,45,19.20
2016,08,20,01,46,19.20
2016,08,20,01,47,19.20
2016,08,20,01,48,19.20
2016,08,20,01,49,19.20
2016,08,20,01,50,19.20
2016,08,20,01,51,19.10
2016,08,20,01,52,19.10
2016,08,20,01,53,19.10
2016,08,20,01,54,19.10
2016,08,20,01,55,19.10
2016,08,20,01,56,19.10
2016,08,20,01,57,19.10
2016,08,20,01,58,19.10
2016,08,20,01,59,19.10
2016,08,20,02,00,19.00
2016,08,20,02,01,19.00
2016,08,20,02,02,18.90
2016,08,20,02,03,18.90
2016,08,20,02,04,18.90
2016,08,20,02,05,18.90
2016,08,20,02,06,18.80
2016,08,20,02,07,18.80
2016,08,20,02,08,18.80
2016,08,20,02,09,18.70
2016,08,20,02,10,18.70
2016,08,20,02,11,18.70
2016,08,20,02,12,18.60
2016,08,20,02,13,18.60
2016,08,20,02,14,18.60
2016,08,20,02,15,18.50
2016,08,20,02,16,18.50
2016,08,20,02,17,18.50
2016,08,20,02,18,18.40
2016,08,20,02,19,18.40
2016,08,20,02,20,18.40
2016,08,20,02,21,18.40
2016,08,20,02,22,18.40
2016,08,20,02,23,18.40
2016,08,20,02,24,18.40
2016,08,20,02,25,18.30
2016,08,20,02,26,18.30
2016,08,20,02,27,18.30
2016,08,20,02,28,18.30
2016,08,20,02,29,18.30
2016,08,20,02,30,18.30
2016,08,20,02,31,18.30
2016,08,20,02,32,18.40
2016,08,20,02,33,18.40
2016,08,20,02,34,18.40
2016,08,20,02,35,18.50
2016,08,20,02,36,18.50
2016,08,20,02,37,18.50
2016,08,20,02,38,18.60
2016,08,20,02,39,18.60
2016,08,20,02,40,18.60
2016,08,20,02,41,18.60
2016,08,20,02,42,18.60
2016,08,20,02,43,18.60
2016,08,20,02,44,18.60
2016,08,20,02,45,18.60
2016,08,20,02,46,18.60
2016,08,20,02,47,18.60
2016,08,20,02,48,18.60
2016,08,20,02,49,18.60
2016,08,20,02,50,18.60
2016,08,20,02,51,18.60
2016,08,20,02,52,18.60
2016,08,20,02,53,18.60
2016,08,20,02,54,18.60
2016,08,20,02,55,18.50
2016,08,20,02,56,18.50
2016,08,20,02,57,18.50
2016,08,20,02,58,18.50
2016,08,20,02,59,18.50
2016,08,20,03,00,18.50
2016,08,20,03,01,18.50
2016,08,20,03,02,18.40
2016,08,20,03,03,18.40
2016,08,20,03,04,18.40
2016,08,20,03,05,18.40
2016,08,20,03,06,18.40
2016,08,20,03,07,18.50
2016,08,20,03,08,18.50
2016,08,20,03,09,18.50
2016,08,20,03,10,18.60
2016,08,20,03,11,18.70
2016,08,20,03,12,18.70
2016,08,20,03,13,18.70
2016,08,20,03,14,18.70
2016,08,20,03,15,18.70
2016,08,20,03,16,18.70
2016,08,20,03,17,18.60
2016,08,20,03,18,18.60
2016,08,20,03,19,18.60
2016,08,20,03,20,18.60
2016,08,20,03,21,18.50
2016,08,20,03,22,18.50
2016,08,20,03,23,18.40
2016,08,20,03,24,18.40
2016,08,20,03,25,18.40
2016,08,20,03,26,18.30
2016,08,20,03,27,18.30
2016,08,20,03,28,18.30
2016,08,20,03,29,18.20
2016,08,20,03,30,18.20
2016,08,20,03,31,18.20
2016,08,20,03,32,18.20
2016,08,20,03,33,18.10
2016,08,20,03,34,18.10
2016,08,20,03,35,18.10
2016,08,20,03,36,18.10
2016,08,20,03,37,18.10
2016,08,20,03,38,18.10
2016,08,20,03,39,18.10
2016,08,20,03,40,18.10
2016,08,20,03,41,18.10
2016,08,20,03,42,18.10
2016,08,20,03,43,18.10
2016,08,20,03,44,18.10
2016,08,20,03,45,18.10
2016,08,20,03,46,18.00
2016,08,20,03,47,18.00
2016,08,20,03,48,18.00
2016,08,20,03,49,18.00
2016,08,20,03,50,18.00
2016,08,20,03,51,17.90
2016,08,20,03,52,17.90
2016,08,20,03,53,17.90
2016,08,20,03,54,17.90
2016,08,20,03,55,17.90
2016,08,20,03,56,17.80
2016,08,20,03,57,17.80
2016,08,20,03,58,17.80
2016,08,20,03,59,17.70
2016,08,20,04,00,17.70
2016,08,20,04,01,17.70
2016,08,20,04,02,17.70
2016,08,20,04,03,17.70
2016,08,20,04,04,17.60
2016,08,20,04,05,17.60
2016,08,20,04,06,17.60
2016,08,20,04,07,17.60
2016,08,20,04,08,17.60
2016,08,20,04,09,17.60
2016,08,20,04,10,17.60
2016,08,20,04,11,17.60
2016,08,20,04,12,17.50
2016,08,20,04,13,17.50
2016,08,20,04,14,17.50
2016,08,20,04,15,17.50
2016,08,20,04,16,17.50
2016,08,20,04,17,17.40
2016,08,20,04,18,17.40
2016,08,20,04,19,17.40
2016,08,20,04,20,17.40
2016,08,20,04,21,17.40
2016,08,20,04,22,17.40
2016,08,20,04,23,17.40
2016,08,20,04,24,17.30
2016,08,20,04,25,17.30
2016,08,20,04,26,17.30
2016,08,20,04,27,17.30
2016,08,20,04,28,17.30
2016,08,20,04,29,17.30
2016,08,20,04,30,17.30
2016,08,20,04,31,17.30
2016,08,20,04,32,17.30
2016,08,20,04,33,17.30
2016,08,20,04,34,17.30
2016,08,20,04,35,17.30
2016,08,20,04,36,17.30
2016,08,20,04,37,17.30
2016,08,20,04,38,17.30
2016,08,20,04,39,17.30
2016,08,20,04,40,17.30
2016,08,20,04,41,17.30
2016,08,20,04,42,17.30
2016,08,20,04,43,17.30
2016,08,20,04,44,17.20
2016,08,20,04,45,17.20
2016,08,20,04,46,17.20
2016,08,20,04,47,17.20
2016,08,20,04,48,17.20
2016,08,20,04,49,17.20
2016,08,20,04,50,17.20
2016,08,20,04,51,17.20
2016,08,20,04,52,17.20
2016,08,20,04,53,17.20
2016,08,20,04,54,17.20
2016,08,20,04,55,17.20
2016,08,20,04,56,17.20
2016,08,20,04,57,17.20
2016,08,20,04,58,17.20
2016,08,20,04,59,17.20
2016,08,20,05,00,17.20
2016,08,20,05,01,17.20
2016,08,20,05,02,17.20
2016,08,20,05,03,17.20
2016,08,20,05,04,17.20
2016,08,20,05,05,17.20
2016,08,20,05,06,17.20
2016,08,20,05,07,17.10
2016,08,20,05,08,17.10
2016,08,20,05,09,17.10
2016,08,20,05,10,17.10
2016,08,20,05,11,17.10
2016,08,20,05,12,17.10
2016,08,20,05,13,17.10
2016,08,20,05,14,17.10
2016,08,20,05,15,17.10
2016,08,20,05,16,17.10
2016,08,20,05,17,17.10
2016,08,20,05,18,17.10
2016,08,20,05,19,17.10
2016,08,20,05,20,17.10
2016,08,20,05,21,17.10
2016,08,20,05,22,17.10
2016,08,20,05,23,17.10
2016,08,20,05,24,17.10
2016,08,20,05,25,17.10
2016,08,20,05,26,17.10
2016,08,20,05,27,17.10
2016,08,20,05,28,17.10
2016,08,20,05,29,17.10
2016,08,20,05,30,17.00
2016,08,20,05,31,17.00
2016,08,20,05,32,17.00
2016,08,20,05,33,17.00
2016,08,20,05,34,17.00
2016,08,20,05,35,17.00
2016,08,20,05,36,17.00
2016,08,20,05,37,17.00
2016,08,20,05,38,17.00
2016,08,20,05,39,17.00
2016,08,20,05,40,17.00
2016,08,20,05,41,17.00
2016,08,20,05,42,17.00
2016,08,20,05,43,17.00
2016,08,20,05,44,17.00
2016,08,20,05,45,17.00
2016,08,20,05,46,16.90
2016,08,20,05,47,16.90
2016,08,20,05,48,16.90
2016,08,20,05,49,16.90
2016,08,20,05,50,16.90
2016,08,20,05,51,16.90
2016,08,20,05,52,16.90
2016,08,20,05,53,16.90
2016,08,20,05,54,17.00
2016,08,20,05,55,17.00
2016,08,20,05,56,17.00
2016,08,20,05,57,16.90
2016,08,20,05,58,16.90
2016,08,20,05,59,16.90
2016,08,20,06,00,16.90
2016,08,20,06,01,16.90
2016,08,20,06,02,16.90
2016,08,20,06,03,16.90
2016,08,20,06,04,16.80
2016,08,20,06,05,16.80
2016,08,20,06,06,16.80
2016,08,20,06,07,16.80
2016,08,20,06,08,16.80
2016,08,20,06,09,16.80
2016,08,20,06,10,16.80
2016,08,20,06,11,16.80
2016,08,20,06,12,16.80
2016,08,20,06,13,16.80
2016,08,20,06,14,16.80
2016,08,20,06,15,16.80
2016,08,20,06,16,16.70
2016,08,20,06,17,16.70
2016,08,20,06,18,16.70
2016,08,20,06,19,16.70
2016,08,20,06,20,16.70
2016,08,20,06,21,16.70
2016,08,20,06,22,16.70
2016,08,20,06,23,16.70
2016,08,20,06,24,16.70
2016,08,20,06,25,16.70
2016,08,20,06,26,16.70
2016,08,20,06,27,16.70
2016,08,20,06,28,16.70
2016,08,20,06,29,16.80
2016,08,20,06,30,16.80
2016,08,20,06,31,16.80
2016,08,20,06,32,16.70
2016,08,20,06,33,16.70
2016,08,20,06,34,16.70
2016,08,20,06,35,16.70
2016,08,20,06,36,16.70
2016,08,20,06,37,16.70
2016,08,20,06,38,16.70
2016,08,20,06,39,16.60
2016,08,20,06,40,16.60
2016,08,20,06,41,16.60
2016,08,20,06,42,16.60
2016,08,20,06,43,16.60
2016,08,20,06,44,16.60
2016,08,20,06,45,16.70
2016,08,20,06,46,16.70
2016,08,20,06,47,16.70
2016,08,20,06,48,16.70
2016,08,20,06,49,16.70
2016,08,20,06,50,16.70
2016,08,20,06,51,16.70
2016,08,20,06,52,16.70
2016,08,20,06,53,16.70
2016,08,20,06,54,16.70
2016,08,20,06,55,16.80
2016,08,20,06,56,16.80
2016,08,20,06,57,16.80
2016,08,20,06,58,16.80
2016,08,20,06,59,16.80
2016,08,20,07,00,16.80
2016,08,20,07,01,16.80
2016,08,20,07,02,16.80
2016,08,20,07,03,16.80
2016,08,20,07,04,16.80
2016,08,20,07,05,16.80
2016,08,20,07,06,16.80
2016,08,20,07,07,16.80
2016,08,20,07,08,16.80
2016,08,20,07,09,16.80
2016,08,20,07,10,16.80
2016,08,20,07,11,16.80
2016,08,20,07,12,16.90
2016,08,20,07,13,16.90
2016,08,20,07,14,16.90
2016,08,20,07,15,16.90
2016,08,20,07,16,16.90
2016,08,20,07,17,16.90
2016,08,20,07,18,16.90
2016,08,20,07,19,16.90
2016,08,20,07,20,16.90
2016,08,20,07,21,16.90
2016,08,20,07,22,16.90
2016,08,20,07,23,17.00
2016,08,20,07,24,17.00
2016,08,20,07,25,17.00
2016,08,20,07,26,17.00
2016,08,20,07,27,17.00
2016,08,20,07,28,17.10
2016,08,20,07,29,17.10
2016,08,20,07,30,17.10
2016,08,20,07,31,17.20
2016,08,20,07,32,17.20
2016,08,20,07,33,17.20
2016,08,20,07,34,17.20
2016,08,20,07,35,17.20
2016,08,20,07,36,17.30
2016,08,20,07,37,17.30
2016,08,20,07,38,17.30
2016,08,20,07,39,17.30
2016,08,20,07,40,17.30
2016,08,20,07,41,17.30
2016,08,20,07,42,17.30
2016,08,20,07,43,17.40
2016,08,20,07,44,17.40
2016,08,20,07,45,17.40
2016,08,20,07,46,17.40
2016,08,20,07,47,17.40
2016,08,20,07,48,17.50
2016,08,20,07,49,17.50
2016,08,20,07,50,17.50
2016,08,20,07,51,17.50
2016,08,20,07,52,17.60
2016,08,20,07,53,17.70
2016,08,20,07,54,17.70
2016,08,20,07,55,17.70
2016,08,20,07,56,17.80
2016,08,20,07,57,17.80
2016,08,20,07,58,17.80
2016,08,20,07,59,17.90
2016,08,20,08,00,17.90
2016,08,20,08,01,18.00
2016,08,20,08,02,18.00
2016,08,20,08,03,18.00
2016,08,20,08,04,18.10
2016,08,20,08,05,18.10
2016,08,20,08,06,18.10
2016,08,20,08,07,18.10
2016,08,20,08,08,18.10
2016,08,20,08,09,18.10
2016,08,20,08,10,18.10
2016,08,20,08,11,18.10
2016,08,20,08,12,18.20
2016,08,20,08,13,18.20
2016,08,20,08,14,18.20
2016,08,20,08,15,18.20
2016,08,20,08,16,18.30
2016,08,20,08,17,18.30
2016,08,20,08,18,18.30
2016,08,20,08,19,18.20
2016,08,20,08,20,18.20
2016,08,20,08,21,18.20
2016,08,20,08,22,18.30
2016,08,20,08,23,18.30
2016,08,20,08,24,18.30
2016,08,20,08,25,18.40
2016,08,20,08,26,18.40
2016,08,20,08,27,18.40
2016,08,20,08,28,18.50
2016,08,20,08,29,18.50
2016,08,20,08,30,18.60
2016,08,20,08,31,18.60
2016,08,20,08,32,18.70
2016,08,20,08,33,18.70
2016,08,20,08,34,18.80
2016,08,20,08,35,18.80
2016,08,20,08,36,18.90
2016,08,20,08,37,18.90
2016,08,20,08,38,18.90
2016,08,20,08,39,19.00
2016,08,20,08,40,19.00
2016,08,20,08,41,19.00
2016,08,20,08,42,19.00
2016,08,20,08,43,19.00
2016,08,20,08,44,19.00
2016,08,20,08,45,19.00
2016,08,20,08,46,19.00
2016,08,20,08,47,19.00
2016,08,20,08,48,19.00
2016,08,20,08,49,19.10
2016,08,20,08,50,19.10
2016,08,20,08,51,19.20
2016,08,20,08,52,19.20
2016,08,20,08,53,19.20
2016,08,20,08,54,19.30
2016,08,20,08,55,19.30
2016,08,20,08,56,19.30
2016,08,20,08,57,19.40
2016,08,20,08,58,19.40
2016,08,20,08,59,19.50
2016,08,20,09,00,19.50
2016,08,20,09,01,19.60
2016,08,20,09,02,19.60
2016,08,20,09,03,19.70
2016,08,20,09,04,19.70
2016,08,20,09,05,19.80
2016,08,20,09,06,19.80
2016,08,20,09,07,19.80
2016,08,20,09,08,19.80
2016,08,20,09,09,19.80
2016,08,20,09,10,19.80
2016,08,20,09,11,19.80
2016,08,20,09,12,19.90
2016,08,20,09,13,19.90
2016,08,20,09,14,19.90
2016,08,20,09,15,19.90
2016,08,20,09,16,19.90
2016,08,20,09,17,20.00
2016,08,20,09,18,20.10
2016,08,20,09,19,20.10
2016,08,20,09,20,20.10
2016,08,20,09,21,20.10
2016,08,20,09,22,20.10
2016,08,20,09,23,20.10
2016,08,20,09,24,20.10
2016,08,20,09,25,20.10
2016,08,20,09,26,20.10
2016,08,20,09,27,20.10
2016,08,20,09,28,20.20
2016,08,20,09,29,20.30
2016,08,20,09,30,20.40
2016,08,20,09,31,20.40
2016,08,20,09,32,20.40
2016,08,20,09,33,20.50
2016,08,20,09,34,20.50
2016,08,20,09,35,20.50
2016,08,20,09,36,20.50
2016,08,20,09,37,20.60
2016,08,20,09,38,20.60
2016,08,20,09,39,20.50
2016,08,20,09,40,20.50
2016,08,20,09,41,20.50
2016,08,20,09,42,20.50
2016,08,20,09,43,20.50
2016,08,20,09,44,20.60
2016,08,20,09,45,20.60
2016,08,20,09,46,20.60
2016,08,20,09,47,20.60
2016,08,20,09,48,20.60
2016,08,20,09,49,20.60
2016,08,20,09,50,20.50
2016,08,20,09,51,20.60
2016,08,20,09,52,20.60
2016,08,20,09,53,20.60
2016,08,20,09,54,20.60
2016,08,20,09,55,20.60
2016,08,20,09,56,20.60
2016,08,20,09,57,20.70
2016,08,20,09,58,20.70
2016,08,20,09,59,20.80
2016,08,20,10,00,20.90
2016,08,20,10,01,20.90
2016,08,20,10,02,20.90
2016,08,20,10,03,21.00
2016,08,20,10,04,21.00
2016,08,20,10,05,21.10
2016,08,20,10,06,21.10
2016,08,20,10,07,21.10
2016,08,20,10,08,21.10
2016,08,20,10,09,21.20
2016,08,20,10,10,21.20
2016,08,20,10,11,21.30
2016,08,20,10,12,21.30
2016,08,20,10,13,21.40
2016,08,20,10,14,21.40
2016,08,20,10,15,21.50
2016,08,20,10,16,21.50
2016,08,20,10,17,21.60
2016,08,20,10,18,21.70
2016,08,20,10,19,21.70
2016,08,20,10,20,21.80
2016,08,20,10,21,21.80
2016,08,20,10,22,21.80
2016,08,20,10,23,21.80
2016,08,20,10,24,21.90
2016,08,20,10,25,21.90
2016,08,20,10,26,22.00
2016,08,20,10,27,22.00
2016,08,20,10,28,22.10
2016,08,20,10,29,22.00
2016,08,20,10,30,21.90
2016,08,20,10,31,21.80
2016,08,20,10,32,21.80
2016,08,20,10,33,21.70
2016,08,20,10,34,21.70
2016,08,20,10,35,21.70
2016,08,20,10,36,21.60
2016,08,20,10,37,21.40
2016,08,20,10,38,21.30
2016,08,20,10,39,21.30
2016,08,20,10,40,21.30
2016,08,20,10,41,21.30
2016,08,20,10,42,21.30
2016,08,20,10,43,21.30
2016,08,20,10,44,21.40
2016,08,20,10,45,21.40
2016,08,20,10,46,21.40
2016,08,20,10,47,21.40
2016,08,20,10,48,21.40
2016,08,20,10,49,21.50
2016,08,20,10,50,21.60
2016,08,20,10,51,21.70
2016,08,20,10,52,21.80
2016,08,20,10,53,21.90
2016,08,20,10,54,22.00
2016,08,20,10,55,22.00
2016,08,20,10,56,22.00
2016,08,20,10,57,22.00
2016,08,20,10,58,22.10
2016,08,20,10,59,22.20
2016,08,20,11,00,22.20
2016,08,20,11,01,22.30
2016,08,20,11,02,22.40
2016,08,20,11,03,22.40
2016,08,20,11,04,22.50
2016,08,20,11,05,22.50
2016,08,20,11,06,22.60
2016,08,20,11,07,22.60
2016,08,20,11,08,22.60
2016,08,20,11,09,22.70
2016,08,20,11,10,22.80
2016,08,20,11,11,22.90
2016,08,20,11,12,23.00
2016,08,20,11,13,23.10
2016,08,20,11,14,23.10
2016,08,20,11,15,23.10
2016,08,20,11,16,23.20
2016,08,20,11,17,23.20
2016,08,20,11,18,23.10
2016,08,20,11,19,23.00
2016,08,20,11,20,23.00
2016,08,20,11,21,23.00
2016,08,20,11,22,23.00
2016,08,20,11,23,22.90
2016,08,20,11,24,22.90
2016,08,20,11,25,22.80
2016,08,20,11,26,22.80
2016,08,20,11,27,22.70
2016,08,20,11,28,22.60
2016,08,20,11,29,22.60
2016,08,20,11,30,22.60
2016,08,20,11,31,22.60
2016,08,20,11,32,22.60
2016,08,20,11,33,22.60
2016,08,20,11,34,22.60
2016,08,20,11,35,22.70
2016,08,20,11,36,22.70
2016,08,20,11,37,22.60
2016,08,20,11,38,22.60
2016,08,20,11,39,22.60
2016,08,20,11,40,22.60
2016,08,20,11,41,22.60
2016,08,20,11,42,22.60
2016,08,20,11,43,22.70
2016,08,20,11,44,22.60
2016,08,20,11,45,22.50
2016,08,20,11,46,22.60
2016,08,20,11,47,22.60
2016,08,20,11,48,22.60
2016,08,20,11,49,22.70
2016,08,20,11,50,22.70
2016,08,20,11,51,22.70
2016,08,20,11,52,22.80
2016,08,20,11,53,22.90
2016,08,20,11,54,22.90
2016,08,20,11,55,22.90
2016,08,20,11,56,22.90
2016,08,20,11,57,22.90
2016,08,20,11,58,23.00
2016,08,20,11,59,23.10
2016,08,20,12,00,23.10
2016,08,20,12,01,23.20
2016,08,20,12,02,23.20
2016,08,20,12,03,23.20
2016,08,20,12,04,23.10
2016,08,20,12,05,23.10
2016,08,20,12,06,23.20
2016,08,20,12,07,23.20
2016,08,20,12,08,23.20
2016,08,20,12,09,23.10
2016,08,20,12,10,23.00
2016,08,20,12,11,23.10
2016,08,20,12,12,23.10
2016,08,20,12,13,23.10
2016,08,20,12,14,23.10
2016,08,20,12,15,23.20
2016,08,20,12,16,23.30
2016,08,20,12,17,23.40
2016,08,20,12,18,23.40
2016,08,20,12,19,23.50
2016,08,20,12,20,23.50
2016,08,20,12,21,23.50
2016,08,20,12,22,23.60
2016,08,20,12,23,23.60
2016,08,20,12,24,23.70
2016,08,20,12,25,23.80
2016,08,20,12,26,23.90
2016,08,20,12,27,23.90
2016,08,20,12,28,23.90
2016,08,20,12,29,23.90
2016,08,20,12,30,23.90
2016,08,20,12,31,23.90
2016,08,20,12,32,23.90
2016,08,20,12,33,24.00
2016,08,20,12,34,24.00
2016,08,20,12,35,24.00
2016,08,20,12,36,23.90
2016,08,20,12,37,23.90
2016,08,20,12,38,23.80
2016,08,20,12,39,23.80
2016,08,20,12,40,23.80
2016,08,20,12,41,23.80
2016,08,20,12,42,23.80
2016,08,20,12,43,23.90
2016,08,20,12,44,23.90
2016,08,20,12,45,23.90
2016,08,20,12,46,24.00
2016,08,20,12,47,24.00
2016,08,20,12,48,24.10
2016,08,20,12,49,24.20
2016,08,20,12,50,24.30
2016,08,20,12,51,24.40
2016,08,20,12,52,24.40
2016,08,20,12,53,24.40
2016,08,20,12,54,24.50
2016,08,20,12,55,24.60
2016,08,20,12,56,24.70
2016,08,20,12,57,24.70
2016,08,20,12,58,24.70
2016,08,20,12,59,24.70
2016,08,20,13,00,24.80
2016,08,20,13,01,24.80
2016,08,20,13,02,24.80
2016,08,20,13,03,24.80
2016,08,20,13,04,24.80
2016,08,20,13,05,24.90
2016,08,20,13,06,24.90
2016,08,20,13,07,24.90
2016,08,20,13,08,24.90
2016,08,20,13,09,25.00
2016,08,20,13,10,25.00
2016,08,20,13,11,25.10
2016,08,20,13,12,25.10
2016,08,20,13,13,25.10
2016,08,20,13,14,25.10
2016,08,20,13,15,25.10
2016,08,20,13,16,25.20
2016,08,20,13,17,25.30
2016,08,20,13,18,25.30
2016,08,20,13,19,25.40
2016,08,20,13,20,25.40
2016,08,20,13,21,25.50
2016,08,20,13,22,25.40
2016,08,20,13,23,25.40
2016,08,20,13,24,25.30
2016,08,20,13,25,25.40
2016,08,20,13,26,25.40
2016,08,20,13,27,25.40
2016,08,20,13,28,25.50
2016,08,20,13,29,25.60
2016,08,20,13,30,25.60
2016,08,20,13,31,25.70
2016,08,20,13,32,25.70
2016,08,20,13,33,25.80
2016,08,20,13,34,25.80
2016,08,20,13,35,25.70
2016,08,20,13,36,25.70
2016,08,20,13,37,25.70
2016,08,20,13,38,25.70
2016,08,20,13,39,25.80
2016,08,20,13,40,25.80
2016,08,20,13,41,25.80
2016,08,20,13,42,25.80
2016,08,20,13,43,25.80
2016,08,20,13,44,25.90
2016,08,20,13,45,25.90
2016,08,20,13,46,25.90
2016,08,20,13,47,25.80
2016,08,20,13,48,25.80
2016,08,20,13,49,25.80
2016,08,20,13,50,25.80
2016,08,20,13,51,25.80
2016,08,20,13,52,25.80
2016,08,20,13,53,25.70
2016,08,20,13,54,25.70
2016,08,20,13,55,25.70
2016,08,20,13,56,25.70
2016,08,20,13,57,25.70
2016,08,20,13,58,25.70
2016,08,20,13,59,25.70
2016,08,20,14,00,25.70
2016,08,20,14,01,25.90
2016,08,20,14,02,26.00
2016,08,20,14,03,26.10
2016,08,20,14,04,26.20
2016,08,20,14,05,26.20
2016,08,20,14,06,26.20
2016,08,20,14,07,26.20
2016,08,20,14,08,26.30
2016,08,20,14,09,26.30
2016,08,20,14,10,26.40
2016,08,20,14,11,26.40
2016,08,20,14,12,26.40
2016,08,20,14,13,26.30
2016,08,20,14,14,26.30
2016,08,20,14,15,26.30
2016,08,20,14,16,26.30
2016,08,20,14,17,26.40
2016,08,20,14,18,26.40
2016,08,20,14,19,26.50
2016,08,20,14,20,26.60
2016,08,20,14,21,26.60
2016,08,20,14,22,26.70
2016,08,20,14,23,26.80
2016,08,20,14,24,26.80
2016,08,20,14,25,26.80
2016,08,20,14,26,26.70
2016,08,20,14,27,26.70
2016,08,20,14,28,26.70
2016,08,20,14,29,26.80
2016,08,20,14,30,26.80
2016,08,20,14,31,26.80
2016,08,20,14,32,26.90
2016,08,20,14,33,26.90
2016,08,20,14,34,26.90
2016,08,20,14,35,26.90
2016,08,20,14,36,27.00
2016,08,20,14,37,27.00
2016,08,20,14,38,26.90
2016,08,20,14,39,26.90
2016,08,20,14,40,26.80
2016,08,20,14,41,26.80
2016,08,20,14,42,26.80
2016,08,20,14,43,26.90
2016,08,20,14,44,26.90
2016,08,20,14,45,26.80
2016,08,20,14,46,26.90
2016,08,20,14,47,26.90
2016,08,20,14,48,26.90
2016,08,20,14,49,26.90
2016,08,20,14,50,26.80
2016,08,20,14,51,26.90
2016,08,20,14,52,26.90
2016,08,20,14,53,27.00
2016,08,20,14,54,27.00
2016,08,20,14,55,27.00
2016,08,20,14,56,27.00
2016,08,20,14,57,27.00
2016,08,20,14,58,27.00
2016,08,20,14,59,27.00
2016,08,20,15,00,27.00
2016,08,20,15,01,27.00
2016,08,20,15,02,27.10
2016,08,20,15,03,27.10
2016,08,20,15,04,27.10
2016,08,20,15,05,27.10
2016,08,20,15,06,27.10
2016,08,20,15,07,27.10
2016,08,20,15,08,27.10
2016,08,20,15,09,27.10
2016,08,20,15,10,27.00
2016,08,20,15,11,27.00
2016,08,20,15,12,27.10
2016,08,20,15,13,27.10
2016,08,20,15,14,27.10
2016,08,20,15,15,27.10
2016,08,20,15,16,27.10
2016,08,20,15,17,27.00
2016,08,20,15,18,26.90
2016,08,20,15,19,26.90
2016,08,20,15,20,27.00
2016,08,20,15,21,27.10
2016,08,20,15,22,27.10
2016,08,20,15,23,27.20
2016,08,20,15,24,27.20
2016,08,20,15,25,27.20
2016,08,20,15,26,27.20
2016,08,20,15,27,27.30
2016,08,20,15,28,27.30
2016,08,20,15,29,27.30
2016,08,20,15,30,27.30
2016,08,20,15,31,27.30
2016,08,20,15,32,27.30
2016,08,20,15,33,27.30
2016,08,20,15,34,27.30
2016,08,20,15,35,27.30
2016,08,20,15,36,27.40
2016,08,20,15,37,27.50
2016,08,20,15,38,27.50
2016,08,20,15,39,27.50
2016,08,20,15,40,27.50
2016,08,20,15,41,27.50
2016,08,20,15,42,27.50
2016,08,20,15,43,27.50
2016,08,20,15,44,27.40
2016,08,20,15,45,27.40
2016,08,20,15,46,27.40
2016,08,20,15,47,27.40
2016,08,20,15,48,27.40
2016,08,20,15,49,27.30
2016,08,20,15,50,27.30
2016,08,20,15,51,27.30
2016,08,20,15,52,27.30
2016,08,20,15,53,27.40
2016,08,20,15,54,27.50
2016,08,20,15,55,27.60
2016,08,20,15,56,27.60
2016,08,20,15,57,27.50
2016,08,20,15,58,27.50
2016,08,20,15,59,27.40
2016,08,20,16,00,27.50
2016,08,20,16,01,27.50
2016,08,20,16,02,27.60
2016,08,20,16,03,27.70
2016,08,20,16,04,27.70
2016,08,20,16,05,27.60
2016,08,20,16,06,27.60
2016,08,20,16,07,27.60
2016,08,20,16,08,27.70
2016,08,20,16,09,27.70
2016,08,20,16,10,27.80
2016,08,20,16,11,27.80
2016,08,20,16,12,27.90
2016,08,20,16,13,27.90
2016,08,20,16,14,27.90
2016,08,20,16,15,27.90
2016,08,20,16,16,27.90
2016,08,20,16,17,27.90
2016,08,20,16,18,27.90
2016,08,20,16,19,27.90
2016,08,20,16,20,27.80
2016,08,20,16,21,27.80
2016,08,20,16,22,27.90
2016,08,20,16,23,27.90
2016,08,20,16,24,27.90
2016,08,20,16,25,28.00
2016,08,20,16,26,28.00
2016,08,20,16,27,28.10
2016,08,20,16,28,28.10
2016,08,20,16,29,28.10
2016,08,20,16,30,28.20
2016,08,20,16,31,28.20
2016,08,20,16,32,28.30
2016,08,20,16,33,28.20
2016,08,20,16,34,28.20
2016,08,20,16,35,28.30
2016,08,20,16,36,28.30
2016,08,20,16,37,28.20
2016,08,20,16,38,28.10
2016,08,20,16,39,28.10
2016,08,20,16,40,28.10
2016,08,20,16,41,28.00
2016,08,20,16,42,28.10
2016,08,20,16,43,28.10
2016,08,20,16,44,28.10
2016,08,20,16,45,28.10
2016,08,20,16,46,28.10
2016,08,20,16,47,28.10
2016,08,20,16,48,28.10
2016,08,20,16,49,28.00
2016,08,20,16,50,28.00
2016,08,20,16,51,27.90
2016,08,20,16,52,27.90
2016,08,20,16,53,27.90
2016,08,20,16,54,27.90
2016,08,20,16,55,27.90
2016,08,20,16,56,27.90
2016,08,20,16,57,27.90
2016,08,20,16,58,27.80
2016,08,20,16,59,27.70
2016,08,20,17,00,27.70
2016,08,20,17,01,27.70
2016,08,20,17,02,27.60
2016,08,20,17,03,27.60
2016,08,20,17,04,27.60
2016,08,20,17,05,27.60
2016,08,20,17,06,27.60
2016,08,20,17,07,27.60
2016,08,20,17,08,27.60
2016,08,20,17,09,27.50
2016,08,20,17,10,27.50
2016,08,20,17,11,27.50
2016,08,20,17,12,27.50
2016,08,20,17,13,27.50
2016,08,20,17,14,27.50
2016,08,20,17,15,27.40
2016,08,20,17,16,27.40
2016,08,20,17,17,27.40
2016,08,20,17,18,27.40
2016,08,20,17,19,27.40